Manhattan, KS

12:10 PM CDT on June 29, 2017 (GMT -0500)
Manhattan Regional

Weather History for KMHK - July, 2013

Change the Weather History Date:

Monday, July 8, 2013

  Actual Average Record
Temperature  
Mean Temperature 88 °F 79 °F  
Max Temperature 101 °F 91 °F 101 °F (2013)
Min Temperature 74 °F 67 °F 62 °F (2014)
Degree Days  
Heating Degree Days 0 0  
Month to date heating degree days 0 0  
Since 1 June heating degree days 9 11  
Since 1 July heating degree days 0 0  
Cooling Degree Days 23 14  
Month to date cooling degree days 99 106  
Year to date cooling degree days 553 476  
Since 1 June cooling degree days 417 376  
Growing Degree Days 38 (Base 50)    
Moisture  
Dew Point 67 °F    
Average Humidity 57    
Maximum Humidity 82    
Minimum Humidity 31    
Precipitation  
Precipitation 0.02 in 0.14 in 1.95 in (1997)
Month to date precipitation 0.02 1.18  
Year to date precipitation 12.81 17.47  
Sea Level Pressure  
Sea Level Pressure 29.94 in    
Wind  
Wind Speed 8 mph (South)    
Max Wind Speed 18 mph    
Max Gust Speed 25 mph    
Visibility 10 miles    
Events Rain , Thunderstorm    
T = Trace of Precipitation, MM = Missing Value Source: NWS Daily Summary

Daily Weather History Graph

Daily Weather History Graph

Search for Another Location

Airport or City:

Trip Planner

Search our weather history database for the weather conditions in past years. The results will help you decide how hot, cold, wet, or windy it might be!

Date:

Astronomy

Jul. 08, 2013 Rise Set
Actual Time 6:08 AM CDT 8:55 PM CDT
Civil Twilight 5:36 AM CDT 9:26 PM CDT
Nautical Twilight 4:56 AM CDT 10:06 PM CDT
Astronomical Twilight 4:11 AM CDT 10:51 PM CDT
Moon 6:37 AM CDT (7/8) 8:59 PM CDT (7/8)
Length of Visible Light 15h 50m
Length of Day
14h 46m
New Moon, 0% of the Moon is Illuminated
Jul 8
New Moon
Jul 15
First Quarter
Jul 22
Full
Jul 29
Last Quarter
Aug 6
New

Hourly Weather History & Observations

Time (CDT) Temp. Heat Index Dew Point Humidity Pressure Visibility Wind Dir Wind Speed Gust Speed Precip Events Conditions
12:14 AM 84.2 °F 85.6 °F 64.4 °F 51% 29.96 in 10.0 mi South 8.1 mph - N/A   Overcast
12:35 AM 84.2 °F 85.6 °F 64.4 °F 51% 29.96 in 10.0 mi SSE 6.9 mph - N/A Thunderstorm Mostly Cloudy
12:52 AM 84.0 °F 85.8 °F 64.9 °F 53% 29.93 in 10.0 mi SSE 11.5 mph - N/A Thunderstorm Thunderstorm
1:05 AM 82.4 °F 83.9 °F 64.4 °F 54% 29.97 in 10.0 mi SSE 11.5 mph - N/A Thunderstorm Overcast
1:20 AM 82.4 °F 84.6 °F 66.2 °F 58% 29.97 in 10.0 mi South 10.4 mph - N/A Thunderstorm Overcast
1:30 AM 82.4 °F 84.6 °F 66.2 °F 58% 29.98 in 10.0 mi South 12.7 mph - N/A   Overcast
2:52 AM 77.0 °F - 70.0 °F 79% 29.98 in 10.0 mi SSE 4.6 mph - 0.00 in Rain Light Rain
3:52 AM 75.0 °F - 70.0 °F 84% 29.98 in 10.0 mi Calm Calm - 0.02 in   Mostly Cloudy
4:52 AM 75.9 °F - 69.1 °F 79% 29.97 in 10.0 mi Calm Calm - N/A   Clear
5:52 AM 75.0 °F - 68.0 °F 79% 29.97 in 10.0 mi SW 3.5 mph - N/A   Clear
6:52 AM 75.9 °F - 68.0 °F 76% 29.96 in 10.0 mi SSW 6.9 mph - N/A   Clear
7:52 AM 77.0 °F - 66.9 °F 71% 29.96 in 10.0 mi SW 10.4 mph - N/A   Clear
8:52 AM 82.0 °F 84.5 °F 66.9 °F 60% 29.96 in 10.0 mi SW 10.4 mph - N/A   Clear
9:52 AM 84.0 °F 86.3 °F 66.0 °F 55% 29.96 in 10.0 mi SW 16.1 mph 23.0 mph N/A   Clear
10:52 AM 87.1 °F 89.9 °F 66.9 °F 51% 29.96 in 10.0 mi SW 12.7 mph - N/A   Clear
11:52 AM 91.0 °F 94.3 °F 66.9 °F 45% 29.96 in 10.0 mi SW 15.0 mph 20.7 mph N/A   Clear
12:52 PM 93.0 °F 96.4 °F 66.9 °F 42% 29.95 in 10.0 mi SSW 8.1 mph - N/A   Clear
1:52 PM 95.0 °F 99.0 °F 66.9 °F 40% 29.93 in 10.0 mi South 9.2 mph - N/A   Clear
2:52 PM 100.9 °F 104.6 °F 64.9 °F 31% 29.91 in 10.0 mi South 13.8 mph 21.9 mph N/A   Clear
3:52 PM 99.0 °F 102.3 °F 64.9 °F 33% 29.91 in 10.0 mi South 10.4 mph - N/A   Clear
4:52 PM 99.0 °F 101.7 °F 64.0 °F 32% 29.90 in 10.0 mi South 13.8 mph 19.6 mph N/A   Clear
5:52 PM 97.0 °F 101.0 °F 66.9 °F 37% 29.89 in 10.0 mi South 11.5 mph - N/A   Clear
6:52 PM 95.0 °F 100.7 °F 69.1 °F 43% 29.88 in 10.0 mi SE 5.8 mph - N/A   Clear
7:52 PM 91.9 °F 96.9 °F 69.1 °F 47% 29.88 in 10.0 mi SSE 5.8 mph - N/A   Clear
8:52 PM 88.0 °F 90.3 °F 66.0 °F 48% 29.88 in 10.0 mi South 8.1 mph - N/A   Clear
9:52 PM 86.0 °F 87.6 °F 64.9 °F 49% 29.91 in 10.0 mi South 6.9 mph - N/A   Clear
10:52 PM 84.0 °F 86.3 °F 66.0 °F 55% 29.92 in 10.0 mi South 6.9 mph - N/A   Clear
11:52 PM 84.0 °F 86.5 °F 66.9 °F 56% 29.91 in 10.0 mi South 8.1 mph - N/A   Clear